Regional Weather Roundup
Issued by NWS Cleveland, OH

Home | Current Version | Previous Version | Graphics & Text | Print | Product List | Glossary On
Versions: 1 2 3 4 5 6 7 8 9 10 11 12 13 14 15 16 17 18 19 20 21 22 23 24 25 26 27 28 29 30 31 32 33 34 35 36 37 38 39 40 41 42 43 44 45 46 47 48 49 50
561
ASUS41 KCLE 241310
RWRCLE
OHIO REGIONAL WEATHER ROUNDUP
NATIONAL WEATHER SERVICE CLEVELAND, OH
900 AM EDT TUE MAY 24 2016

NOTE: "FAIR" INDICATES FEW OR NO CLOUDS BELOW 12,000 FEET WITH NO
SIGNIFICANT WEATHER AND/OR OBSTRUCTIONS TO VISIBILITY.

OHZ001>008-015>018-024>027-034-035-043-044-241400-
   NORTHWEST OHIO

CITY           SKY/WX    TMP DP  RH WIND       PRES   REMARKS
DEFIANCE       SUNNY     65  49  56 SW5       30.08R
FINDLAY        SUNNY     68  50  52 SW7       30.08R
TOLEDO EXPRESS SUNNY     65  48  54 SW7       30.07R
TOLEDO EXEC    SUNNY     65  49  56 SW10      30.08R
LIMA           SUNNY     66  50  56 SW9       30.09R
$$

OHZ009>014-019>023-028>033-038-089-241400-
   NORTHEAST OHIO

CITY           SKY/WX    TMP DP  RH WIND       PRES   REMARKS
CLE-HOPKINS    SUNNY     67  50  54 SW9       30.10R
CLE-LAKEFRONT  SUNNY     69  50  50 SW9       30.06R
CUY CO. ARPT   SUNNY     70  52  52 W12       30.08R
LORAIN-ELYRIA  SUNNY     66  50  56 W7        30.09R
ASHTABULA      SUNNY     62  51  67 W5        30.09R
AKRON-CANTON   SUNNY     66  50  56 SW6       30.10R
WOOSTER        SUNNY     65  52  62 W8        30.11R
MANSFIELD      SUNNY     67  50  54 SW8       30.11R
YOUNGSTOWN     SUNNY     65  50  58 W5        30.09R
$$

OHZ042-051>053-060>062-070>072-077>081-241400-
  SOUTHWEST OHIO

CITY           SKY/WX    TMP DP  RH WIND       PRES   REMARKS
CINC-COVINGTON MOSUNNY   65  54  67 S8        30.12R
CINC-LUNKEN    SUNNY     59  57  93 CALM      30.13R
HAMILTON       SUNNY     63  56  78 CALM      30.13R
DAYTON         MOSUNNY   65  51  60 SW7       30.12R
WRIGHT-PAT AFB SUNNY     63  56  78 CALM      30.11R
DAYTON GENERAL SUNNY     65  52  62 S3        30.11R
WILMINGTON     SUNNY     66  53  63 SW7       30.12R
$$

OHZ036-037-039>041-045>050-054>059-063>069-073>076-082>088-241400-
  CENTRAL AND SOUTHEAST OHIO

CITY           SKY/WX    TMP DP  RH WIND       PRES   REMARKS
COLUMBUS       SUNNY     62  52  69 CALM      30.11R
OSU AIRPORT    SUNNY     65  53  65 CALM      30.11R
BOLTON FIELD   SUNNY     64  55  72 SW3       30.12R
RICKENBACK AFB SUNNY     61  54  78 CALM      30.11S
NEWARK         SUNNY     64  56  75 CALM      30.11R
MARION         SUNNY     67  52  58 SW5       30.11R
LANCASTER      SUNNY     65  55  70 N3        30.12R
ZANESVILLE     SUNNY     63  55  75 CALM      30.12R
NEW PHILLY     SUNNY     62  54  74 E3        30.11R
$$




USA.gov is the U.S. government's official web portal to all federal, state and local government web resources and services.